QPF
0.00 0.00 0.00 0.00 0.00 0.00 0.00 0.00 0.00 0.00 0.00 0.00 0.00 0.00 0.00 0.00 0.00 0.00 0.00 0.00 0.00 0.00
0.00 0.00 0.00 0.00 0.00 0.00 0.00 0.00 0.00 0.00 0.00 0.00 0.00 0.00 0.00 0.00 0.00 0.00 0.00 0.00 0.00 0.00
0.00 0.00 0.00 0.00 0.00 0.00 0.00 0.00 0.00 0.00 0.00 0.00 0.00 0.00 0.00 0.00 0.00 0.00 0.00 0.00 0.00 0.00
0.00 0.00 0.00 0.00 0.00 0.00 0.00 0.00 0.00 0.00 0.00 0.00 0.00 0.00 0.00 0.00 0.00 0.00 0.00 0.00 0.00 0.00
0.00 0.00 0.00 0.00 0.00 0.00 0.00 0.00 0.00 0.00 0.00 0.00 0.00 0.00 0.00 0.00 0.00 0.00 0.00 0.00 0.00 0.00
0.00 0.00 0.00 0.00 0.00 0.00 0.00 0.00 0.00 0.00 0.00 0.00 0.00 0.00 0.00 0.00 0.00 0.00 0.00 0.00 0.00 0.00
0.00 0.00 0.00 0.00 0.00 0.00 0.00 0.00 0.00 0.00 0.00 0.00 0.00 0.00 0.00 0.00 0.00 0.00 0.00 0.00 0.00 0.00
0.00 0.00 0.00 0.00 0.00 0.00 0.00 0.00 0.00 0.00 0.00 0.00 0.00 0.00 0.00 0.00 0.00 0.00 0.00 0.00 0.00 0.00
0.00 0.00 0.00 0.00 0.00 0.00 0.00 0.00 0.00 0.00 0.00 0.00 0.00 0.00 0.00 0.00 0.00 0.00 0.00 0.00 0.00 0.00
0.00 0.00 0.00 0.00 0.00 0.00 0.00 0.00 0.00 0.00 0.00 0.00 0.00 0.00 0.00 0.00 0.00 0.00 0.00 0.00 0.00 0.00
0.00 0.00 0.00 0.00 0.00 0.00 0.00 0.00 0.00 0.00 0.00 0.00 0.00 0.00 0.00 0.00 0.00 0.00 0.00 0.00 0.00 0.00
0.00 0.00 0.00 0.00 0.00 0.00 0.00 0.00 0.00 0.00 0.00 0.00 0.00 0.00 0.00 0.00 0.00 0.00 0.00 0.00 0.00 0.00
0.00 0.00 0.00 0.00 0.00 0.00 0.00 0.00 0.00 0.00 0.00 0.00 0.00 0.00 0.00 0.00 0.00 0.00 0.00 0.00 0.00 0.00
0.00 0.00 0.00 0.00 0.00 0.00 0.00 0.00 0.00 0.00 0.00 0.00 0.00 0.00 0.00 0.00 0.00 0.00 0.00 0.00 0.00 0.00
MSLP
1014.60 1015.19 1015.77 1016.15 1016.55 1016.96 1017.21 1017.37 1017.46 1017.47 1017.47 1017.40 1017.22 1017.09 1017.00 1016.91 1016.75 1016.53 1016.40 1016.19 1015.93 1015.71
1014.91 1015.37 1016.03 1016.43 1016.70 1017.01 1017.21 1017.31 1017.39 1017.44 1017.47 1017.34 1017.17 1017.13 1017.02 1016.86 1016.66 1016.38 1016.09 1015.92 1015.66 1015.49
1015.32 1015.75 1016.26 1016.60 1016.98 1017.18 1017.33 1017.40 1017.48 1017.52 1017.40 1017.31 1017.19 1017.04 1016.88 1016.70 1016.42 1016.22 1015.92 1015.61 1015.48 1015.23
1015.78 1016.18 1016.61 1016.93 1017.17 1017.31 1017.48 1017.57 1017.57 1017.51 1017.45 1017.35 1017.07 1016.89 1016.74 1016.50 1016.18 1015.99 1015.67 1015.32 1015.15 1015.00
1016.16 1016.57 1016.95 1017.24 1017.36 1017.50 1017.54 1017.59 1017.60 1017.60 1017.42 1017.20 1017.00 1016.77 1016.54 1016.30 1015.95 1015.71 1015.42 1015.04 1014.91 1014.77
1016.66 1016.93 1017.27 1017.41 1017.48 1017.48 1017.58 1017.70 1017.69 1017.58 1017.38 1017.17 1016.87 1016.59 1016.23 1016.00 1015.66 1015.27 1014.89 1014.69 1014.61 1014.36
1016.91 1017.20 1017.37 1017.45 1017.53 1017.66 1017.78 1017.77 1017.67 1017.53 1017.38 1017.16 1016.86 1016.41 1015.96 1015.60 1015.13 1014.76 1014.52 1014.30 1014.08 1013.80
1017.07 1017.28 1017.41 1017.60 1017.73 1017.85 1017.89 1017.86 1017.77 1017.56 1017.34 1017.03 1016.72 1016.11 1015.61 1015.08 1014.67 1014.42 1014.16 1013.86 1013.57 1013.15
1017.18 1017.37 1017.65 1017.78 1017.90 1017.94 1017.92 1017.90 1017.77 1017.64 1017.41 1017.05 1016.60 1016.01 1015.33 1014.76 1014.27 1013.96 1013.79 1013.50 1013.06 1012.61
1017.27 1017.62 1017.82 1017.96 1017.99 1018.04 1018.16 1018.05 1017.88 1017.67 1017.39 1017.03 1016.50 1015.78 1015.15 1014.51 1014.07 1013.90 1013.68 1013.35 1012.82 1012.18
1017.46 1017.80 1017.94 1018.05 1018.27 1018.28 1018.16 1018.16 1018.00 1017.73 1017.36 1016.98 1016.36 1015.59 1014.89 1014.38 1014.19 1013.93 1013.49 1012.96 1012.35 1011.77
1017.52 1017.81 1018.02 1018.23 1018.39 1018.29 1018.28 1018.17 1017.96 1017.62 1017.21 1016.77 1016.12 1015.46 1014.83 1014.25 1013.96 1013.57 1013.05 1012.46 1011.84 1011.31
1017.64 1017.88 1018.15 1018.34 1018.43 1018.38 1018.33 1018.16 1017.85 1017.47 1016.98 1016.52 1015.99 1015.40 1014.77 1014.13 1013.62 1013.11 1012.46 1011.84 1011.23 1010.73
1017.75 1018.00 1018.20 1018.37 1018.48 1018.48 1018.34 1018.10 1017.68 1017.31 1016.81 1016.29 1015.83 1015.30 1014.69 1014.02 1013.26 1012.69 1011.82 1011.19 1010.65 1010.08
Thickness
5606 5599 5593 5587 5581 5574 5568 5563 5559 5555 5550 5547 5544 5540 5534 5528 5522 5516 5507 5501 5494 5488
5595 5590 5581 5575 5570 5564 5560 5556 5550 5546 5541 5538 5534 5528 5522 5516 5509 5502 5494 5487 5481 5474
5584 5578 5571 5565 5559 5555 5550 5545 5540 5536 5532 5527 5522 5516 5510 5502 5495 5488 5480 5474 5466 5459
5572 5566 5560 5555 5550 5545 5540 5534 5530 5525 5520 5514 5510 5504 5496 5489 5482 5474 5467 5460 5452 5443
5561 5555 5550 5545 5540 5535 5530 5525 5520 5514 5509 5504 5498 5491 5483 5475 5468 5460 5454 5446 5436 5425
5550 5546 5540 5535 5530 5526 5520 5514 5508 5503 5497 5491 5485 5477 5470 5461 5455 5448 5440 5430 5419 5407
5541 5536 5530 5525 5521 5515 5509 5503 5496 5490 5484 5476 5469 5463 5456 5449 5443 5435 5425 5413 5401 5387
5531 5526 5521 5515 5509 5503 5497 5490 5483 5478 5470 5461 5454 5450 5444 5439 5431 5420 5409 5396 5382 5368
5522 5516 5510 5504 5497 5491 5484 5477 5470 5462 5454 5446 5440 5436 5430 5423 5416 5404 5390 5377 5363 5346
5512 5505 5498 5491 5485 5478 5470 5463 5455 5446 5438 5432 5425 5422 5416 5409 5399 5385 5369 5353 5338 5325
5500 5492 5485 5480 5472 5465 5458 5449 5440 5431 5424 5417 5411 5408 5401 5393 5379 5364 5349 5331 5315 5298
5489 5482 5475 5467 5459 5453 5444 5434 5426 5419 5412 5405 5398 5392 5384 5376 5362 5346 5330 5312 5294 5275
5478 5471 5463 5454 5447 5438 5429 5422 5415 5408 5400 5393 5383 5374 5365 5353 5339 5327 5313 5298 5279 5264
5467 5459 5451 5441 5432 5424 5417 5410 5405 5398 5388 5378 5367 5355 5343 5328 5315 5301 5293 5279 5267 5253